GW4352 Weather Reports


time (UTC)temp
F
wind
direction
speed
knots
gust
knots
rain 1hr
in
rain 24hr
in
rain mn
in
humidity
%
barometer
mb
20260507100019 59 112 0.9 2.6 0.00 0.00 0.00 49 1013.8
20260507095028 57 107 1.7 2.6 0.00 0.00 0.00 48 1014.0
20260507094035 55 250 1.7 2.6 0.00 0.00 0.00 55 1014.0
20260507093050 55 276 0.9 5.2 0.00 0.00 0.00 62 1013.8
20260507092017 55 264 3.5 5.2 0.00 0.00 0.00 64 1013.8
20260507091041 58 203 2.6 6.1 0.00 0.00 0.00 61 1013.8
20260507090019 57 153 1.7 3.5 0.00 0.00 0.00 62 1013.7
20260507085025 56 162 1.7 3.5 0.00 0.00 0.00 67 1014.0
20260507084021 55 174 0.9 3.5 0.00 0.00 0.00 69 1013.9
20260507083051 55 98 1.7 5.2 0.00 0.00 0.00 72 1013.9
20260507082033 55 92 0.9 2.6 0.00 0.00 0.00 74 1013.9
20260507081028 54 139 2.6 5.2 0.00 0.00 0.00 76 1013.7
20260507080038 54 84 1.7 3.5 0.00 0.00 0.00 77 1013.6
20260507075041 52 123 2.6 5.2 0.00 0.00 0.00 80 1013.5
20260507074018 52 48 0.9 2.6 0.00 0.00 0.00 84 1013.4
20260507073025 50 58 0.9 1.7 0.00 0.00 0.00 84 1013.4
20260507072021 50 82 0.9 1.7 0.00 0.00 0.00 84 1013.6
20260507071026 49 105 0.9 1.7 0.00 0.00 0.00 85 1013.5
20260507070034 48 115 0.0 0.9 0.00 0.00 0.00 86 1013.5
20260507065029 46 0.0 0.0 0.00 0.00 0.00 89 1013.3
20260507064022 45 0.0 0.0 0.00 0.00 0.00 92 1013.4
20260507063043 43 216 0.0 0.9 0.00 0.00 0.00 94 1013.2
20260507062018 42 216 0.0 1.7 0.00 0.00 0.00 95 1013.2
20260507061045 42 216 0.9 1.7 0.00 0.00 0.00 95 1013.4
20260507060019 41 217 0.9 1.7 0.00 0.00 0.00 96 1013.2
20260507055028 40 208 0.9 1.7 0.00 0.00 0.00 96 1013.1
20260507054033 40 0.0 0.0 0.00 0.00 0.00 96 1013.0
20260507053029 39 0.0 0.0 0.00 0.00 0.00 96 1012.9
20260507052019 39 0.0 0.0 0.00 0.00 0.00 96 1012.9
20260507051041 39 0.0 0.0 0.00 0.00 0.00 96 1012.9
20260507050018 38 0.0 0.0 0.00 0.00 0.00 97 1012.7
20260507045029 38 0.0 0.0 0.00 0.00 0.00 96 1012.8
20260507044023 38 206 0.0 0.9 0.00 0.00 0.00 96 1012.8
20260507043042 38 205 0.9 1.7 0.00 0.00 0.00 96 1012.8
20260507042021 39 206 0.9 1.7 0.00 0.00 0.00 96 1012.8
20260507041025 39 194 0.9 1.7 0.00 0.00 0.00 96 1012.7
20260507040018 39 0.0 0.0 0.00 0.00 0.00 96 1012.8
20260507035041 39 0.0 0.0 0.00 0.00 0.00 96 1012.8
20260507034021 40 165 0.0 0.9 0.00 0.00 0.00 96 1012.9
20260507033025 39 161 0.0 1.7 0.00 0.00 0.00 96 1012.8
20260507032023 39 0.0 0.0 0.00 0.00 0.00 96 1012.7
20260507031027 40 0.0 0.0 0.00 0.00 0.00 96 1012.7
20260507030033 40 0.0 0.0 0.00 0.00 0.00 96 1012.8
20260507025029 40 0.0 0.0 0.00 0.00 0.00 95 1012.7
20260507024018 41 0.0 0.0 0.00 0.00 0.00 95 1012.6
20260507023042 41 0.0 0.0 0.00 0.00 0.00 95 1012.6
20260507022023 41 0.0 0.0 0.00 0.00 0.00 95 1012.8
20260507021028 42 0.0 0.0 0.00 0.00 0.00 94 1012.5
20260507020022 42 0.0 0.0 0.00 0.00 0.00 94 1012.5
20260507015028 42 0.0 0.0 0.00 0.00 0.00 94 1012.5
20260507014035 42 0.0 0.0 0.00 0.00 0.00 94 1012.4
20260507013028 42 0.0 0.0 0.00 0.00 0.00 93 1012.6
20260507012023 42 0.0 0.0 0.00 0.00 0.00 93 1012.5
20260507010019 43 0.0 0.0 0.00 0.00 0.00 92 1012.6
20260507005026 42 0.0 0.0 0.00 0.00 0.00 90 1012.3
20260507004021 43 0.0 0.0 0.00 0.00 0.00 90 1012.5
20260507003027 44 0.0 0.0 0.00 0.00 0.00 90 1012.4
20260507002035 44 0.0 0.0 0.00 0.00 0.00 89 1012.5
20260507001027 45 0.0 0.0 0.00 0.00 0.00 88 1012.6
20260507000018 45 0.0 0.0 0.00 0.00 0.00 87 1012.5
20260506235042 46 0.0 0.0 0.00 0.00 0.00 85 1012.6
20260506234018 47 0.0 0.0 0.00 0.00 0.00 84 1012.5
20260506233026 47 0.0 0.0 0.00 0.00 0.00 81 1012.4
20260506232019 49 38 0.0 1.7 0.00 0.00 0.00 78 1012.3
20260506231026 49 28 0.0 0.9 0.00 0.00 0.00 77 1012.4
20260506230034 50 28 0.9 2.6 0.00 0.00 0.00 76 1012.7
20260506225029 50 34 0.0 0.9 0.00 0.00 0.00 75 1012.4
20260506224017 51 51 0.0 0.9 0.00 0.00 0.00 75 1012.4
20260506223102 51 61 0.9 3.5 0.00 0.00 0.00 74 1012.3
20260506222018 51 71 0.9 2.6 0.00 0.00 0.00 73 1012.3
20260506221026 52 73 0.0 1.7 0.00 0.00 0.00 71 1012.2
20260506220034 52 53 0.9 2.6 0.00 0.00 0.00 70 1012.3
20260506215028 52 51 0.9 1.7 0.00 0.00 0.00 69 1012.1
20260506214018 52 42 0.9 3.5 0.00 0.00 0.00 68 1012.2
20260506213029 52 47 0.9 2.6 0.00 0.00 0.00 68 1012.3
20260506212019 52 51 0.9 1.7 0.00 0.00 0.00 68 1012.1
20260506211043 53 63 0.9 3.5 0.00 0.00 0.00 67 1011.9
20260506205045 53 85 0.9 3.5 0.00 0.00 0.00 66 1012.1
20260506204027 53 58 1.7 6.1 0.00 0.00 0.00 65 1012.1
20260506203026 53 38 2.6 5.2 0.00 0.00 0.00 65 1011.9
20260506202018 53 54 0.9 3.5 0.00 0.00 0.00 64 1011.6
20260506201027 53 42 1.7 5.2 0.00 0.00 0.00 63 1011.8
20260506200159 53 29 0.9 2.6 0.00 0.00 0.00 64 1011.6
20260506195041 54 32 0.9 1.7 0.00 0.00 0.00 64 1011.5
20260506194020 54 11 0.0 1.7 0.00 0.00 0.00 64 1011.1
20260506193024 54 26 0.9 2.6 0.00 0.00 0.00 64 1011.4
20260506192020 54 6 0.9 3.5 0.00 0.00 0.00 64 1011.3
20260506191028 54 40 1.7 5.2 0.00 0.00 0.00 62 1011.3
20260506190033 54 32 2.6 6.1 0.00 0.00 0.00 62 1011.2
20260506185048 55 27 2.6 7.8 0.00 0.00 0.00 61 1011.2
20260506184017 55 41 2.6 7.0 0.00 0.00 0.00 60 1010.9
20260506183043 55 33 3.5 6.1 0.00 0.00 0.00 60 1011.0
20260506182019 55 44 2.6 7.0 0.00 0.00 0.00 62 1010.9
20260506181027 55 26 1.7 5.2 0.00 0.00 0.00 61 1010.8
20260506180020 55 38 2.6 6.1 0.00 0.00 0.00 60 1010.7
20260506175026 55 50 1.7 5.2 0.00 0.00 0.00 61 1010.8
20260506174033 55 58 2.6 6.1 0.00 0.00 0.00 60 1010.7
20260506173027 55 62 0.9 3.5 0.00 0.00 0.00 60 1010.7
20260506172017 55 51 2.6 6.1 0.00 0.00 0.00 61 1010.4
20260506171043 55 45 2.6 6.1 0.00 0.00 0.00 62 1010.6
20260506170018 55 69 2.6 7.0 0.00 0.00 0.00 61 1010.5
20260506165025 55 38 2.6 5.2 0.00 0.00 0.00 61 1010.6
20260506164019 56 38 4.3 8.7 0.00 0.00 0.00 60 1010.6
20260506163046 57 51 4.3 9.6 0.00 0.00 0.00 60 1010.6
20260506162033 55 69 1.7 7.0 0.00 0.00 0.00 63 1010.5
20260506161027 55 46 4.3 8.7 0.00 0.00 0.00 63 1010.6
20260506160018 55 51 5.2 11.3 0.00 0.00 0.00 63 1010.7
20260506155043 57 25 3.5 11.3 0.00 0.00 0.00 57 1010.6
20260506154035 57 70 2.6 7.0 0.00 0.00 0.00 56 1010.7
20260506153025 56 69 2.6 6.1 0.00 0.00 0.00 58 1010.6
20260506152019 56 37 4.3 7.8 0.00 0.00 0.00 58 1010.6
20260506151026 55 5 3.5 7.0 0.00 0.00 0.00 60 1010.6
20260506150033 55 350 3.5 7.8 0.00 0.00 0.00 61 1010.7
20260506145027 56 51 3.5 9.6 0.00 0.00 0.00 61 1010.6
20260506144022 57 24 5.2 8.7 0.00 0.00 0.00 58 1010.6
20260506143042 56 31 3.5 12.2 0.00 0.00 0.00 58 1010.6
20260506142019 57 12 5.2 13.0 0.00 0.00 0.00 57 1010.6
20260506141025 56 34 2.6 6.1 0.00 0.00 0.00 56 1010.5
20260506140020 57 25 3.5 8.7 0.00 0.00 0.00 57 1010.5
20260506135026 57 38 4.3 9.6 0.00 0.00 0.00 55 1010.6
20260506134033 56 41 4.3 8.7 0.00 0.00 0.00 55 1010.4
20260506133049 56 37 3.5 7.8 0.00 0.00 0.00 55 1010.5
20260506132017 58 24 4.3 11.3 0.00 0.00 0.00 53 1010.6
20260506131043 56 47 4.3 8.7 0.00 0.00 0.00 55 1010.5
20260506130020 59 7 3.5 11.3 0.00 0.00 0.00 52 1010.5
20260506125026 57 26 5.2 8.7 0.00 0.00 0.00 54 1010.5
20260506124041 58 48 4.3 11.3 0.00 0.00 0.00 53 1010.4
20260506123026 57 17 3.5 7.8 0.00 0.00 0.00 54 1010.3
20260506122034 58 27 3.5 7.8 0.00 0.00 0.00 52 1010.5
20260506121028 56 28 5.2 11.3 0.00 0.00 0.00 54 1010.7
20260506120017 56 1 4.3 9.6 0.00 0.00 0.00 55 1010.6
20260506115102 56 24 5.2 8.7 0.00 0.00 0.00 55 1010.5
20260506114018 56 13 5.2 14.8 0.00 0.00 0.00 54 1010.6
20260506113025 56 50 7.0 15.6 0.00 0.00 0.00 54 1010.4
20260506112041 56 51 4.3 12.2 0.00 0.00 0.00 54 1010.6
20260506111108 57 20 4.3 7.8 0.00 0.00 0.00 53 1010.6
20260506110028 57 10 5.2 11.3 0.00 0.00 0.00 51 1010.6
20260506105027 56 39 5.2 12.2 0.00 0.00 0.00 56 1010.5
20260506104018 56 14 4.3 7.8 0.00 0.00 0.00 59 1010.6
20260506103041 55 23 3.5 9.6 0.00 0.00 0.00 59 1010.4
20260506102039 55 5 3.5 8.7 0.00 0.00 0.00 60 1010.7
20260506101106 54 40 4.3 12.2 0.00 0.00 0.00 61 1010.7